User: anonymous   Login
Location: Veyrier
(46.1830°N, 6.2000°E)
Time: 22:06:56
(UTC+02:00)
Language:

Iridium 98 - Orbit

View from above orbital plane
View from above orbital plane
View from above satellite
View from above satellite

Ground track
Ground track

The orbit data is extracted from the following two-line orbital elements,

1 27451U 02031B   16149.51684178  .00000012  00000-0 -26680-5 0  9997
2 27451  86.3972 183.0136 0002399  89.5396  21.0226 14.34219013736165
Epoch (UTC): 28 May 2016 12:24:15
Eccentricity: 0.0002399
inclination: 86.3972°
perigee height: 776 km
apogee height: 779 km
right ascension of ascending node: 183.0136°
argument of perigee: 89.5396°
revolutions per day: 14.34219013
mean anomaly at epoch: 21.0226°
orbit number at epoch: 73616

The dashed part of the orbit path shows where the satellite is in the earth's shadow,  

DLR